Regional Weather Roundup
Issued by NWS

Home | Current Version | Previous Version | Text Only | Print | Product List | Glossary On
Versions: 1 2 3 4 5 6 7 8 9 10 11 12 13 14 15 16 17 18 19 20 21 22 23 24 25 26 27
000
ASUS44 KLIX 220013
RWRLA
LOUISIANA WEATHER ROUNDUP
NATIONAL WEATHER SERVICE NEW ORLEANS LA
700 PM CDT MON AUG 21 2017

NOTE: "FAIR" INDICATES FEW OR NO CLOUDS BELOW 12,000 FEET WITH NO
      SIGNIFICANT WEATHER AND/OR OBSTRUCTIONS TO VISIBILITY.
      SKY/WX - SKY CONDITION AND SIGNIFICANT WEATHER.
      TMP - AIR TEMPERATURE.    DP   - DEWPOINT TEMPERATURE.
      RH  - RELATIVE HUMIDITY.  PRES - PRESSURE.
      HX  - HEAT INDEX.         WCI  - WIND CHILL INDEX.

*  THESE STATIONS ARE NOT NWS OR FAA STATIONS AND ARE NOT UNDER
   NWS QUALITY CONTROL.

LAZ040-048-061>063-065-066-069-220100-
SOUTHEAST LOUISIANA

CITY           SKY/WX    TMP DP  RH WIND       PRES   REMARKS
N.O. INTL ARPT TSTM      80  75  84 N13G18    30.08R
6HR MIN TEMP:  80; 6HR MAX TEMP:  93; 6HR PCP:  0.04;

N.O. LAKEFRONT CLOUDY    82  77  84 NE26      30.09R
6HR MIN TEMP:  82; 6HR MAX TEMP:  92;

N.O. DOWNTOWN* FAIR      88  75  65 VRB5      30.09R HX  97
6HR MIN TEMP:  88; 6HR MAX TEMP:  93;

RESERVE*       MOCLDY    83  68  60 CALM      30.09R
6HR MIN TEMP:  82; 6HR MAX TEMP:  95;

SLIDELL        CLOUDY    75  73  93 CALM      30.08F
6HR MIN TEMP:  74; 6HR MAX TEMP:  91; 6HR PCP:  0.48;

BATON ROUGE    MOCLDY    78  74  87 E9        30.07R
6HR MIN TEMP:  78; 6HR MAX TEMP:  94; 6HR PCP:  0.04;

BOOTHVILLE     PTCLDY    86  78  77 SE7       30.08R HX  98
6HR MIN TEMP:  83; 6HR MAX TEMP:  90; 6HR PCP:  0.20;

BELLE CHASSE   MOCLDY    90  79  70 SE6       30.06R HX 105
6HR MIN TEMP:  86; 6HR MAX TEMP:  91;

BOGALUSA*      FAIR      77  73  86 W3        30.12S
6HR MIN TEMP:  76; 6HR MAX TEMP:  94; 6HR PCP:  0.55;

GALLIANO*      PTCLDY    84  72  67 SE5       30.06F
6HR MIN TEMP:  79; 6HR MAX TEMP:  89; 6HR PCP:  0.07;

NEW ROADS*     TSTM      77  70  78 S13G46    30.10R VSB 3/4
6HR MIN TEMP:  77; 6HR MAX TEMP:  91;

GONZALES*      TSTM      78  72  82 E6        30.07R
6HR MIN TEMP:  78; 6HR MAX TEMP:  92; 6HR PCP:  0.01;

HAMMOND*       CLOUDY    75  70  83 NE6       30.10F
HOUMA*         PTCLDY    86  77  74 E6        30.07R HX  97
PORT FOURCHON* PTCLDY    86  77  74 SE10      30.06S HX  97

$$

LAZ041-044-053-054-220100-
SOUTHWEST LOUISIANA

CITY           SKY/WX    TMP DP  RH WIND       PRES   REMARKS
LAKE CHARLES   CLOUDY    87  74  64 NE3       30.05R HX  95
6HR MIN TEMP:  86; 6HR MAX TEMP:  92; 6HR PCP: TRACE;

LAFAYETTE      PTCLDY    91  73  55 CALM      30.05R HX  99
6HR MIN TEMP:  88; 6HR MAX TEMP:  94;

PATTERSON      CLOUDY    79  76  90 NE6       30.07S
6HR MIN TEMP:  77; 6HR MAX TEMP:  91;

SALT POINT       N/A     82  74  76 CALM      30.05R
6HR MIN TEMP:  81; 6HR MAX TEMP:  91;

NEW IBERIA     CLOUDY    82  70  66 SE13      30.08R
6HR MIN TEMP:  82; 6HR MAX TEMP:  93;

CHENAULT AIRPK PTCLDY    81  77  89 CALM      30.05S

$$

LAZ027-028-220100-
CENTRAL LOUISIANA

CITY           SKY/WX    TMP DP  RH WIND       PRES   REMARKS
FORT POLK      CLEAR     89  72  56 SE6       30.05R HX  95
6HR MIN TEMP:  87; 6HR MAX TEMP:  91;

ALEXANDRIA INT CLEAR     86  74  67 NW5       30.03S
ALEXANDRIA     CLEAR     89  77  67 SE3       30.05S HX 101
6HR MIN TEMP:  84; 6HR MAX TEMP:  93; 6HR PCP:  0.03;


$$

LAZ001-002-220100-
NORTHWEST LOUISIANA

CITY           SKY/WX    TMP DP  RH WIND       PRES   REMARKS
SHREVEPORT     MOSUNNY   90  73  57 S6        30.04S HX  98
6HR MIN TEMP:  88; 6HR MAX TEMP:  93;

BARKSDALE AFB  CLEAR     90  73  56 SE6       30.04S HX  97
6HR MIN TEMP:  88; 6HR MAX TEMP:  93;

DTN SHREVEPORT SUNNY     90  73  57 SE6       30.04S HX  98
6HR MIN TEMP:  90; 6HR MAX TEMP:  94;


$$

LAZ014-016-220100-
NORTHEAST LOUISIANA

CITY           SKY/WX    TMP DP  RH WIND       PRES   REMARKS
MONROE         CLOUDY    78  66  66 VRB3      30.06F
6HR MIN TEMP:  77; 6HR MAX TEMP:  95; 6HR PCP:  1.30;

TALLULAH       NOT AVBL

$$





USA.gov is the U.S. government's official web portal to all federal, state and local government web resources and services.